Flag for Germany Weather past 2 weeks in Unna, North Rhine-Westphalia, Germany

Now
59 °F

Passing clouds.


Feels Like: 59 °F
Forecast: 56 / 69 °F
Wind: 5 mph from Northeast

Location: Dortmund / Wickede

Current Time: Sep 3, 2014 at 12:50:35 AM

Latest Report: Sep 2, 2014 at 10:50 PM


Visibility: 5 mi

Pressure: 30.24 "Hg

Humidity: 88%

Dew point: 55 °F

Location of UnnaLocation

Historic Weather in Unna — Graph

°F

Unna temperature yesterday

Maximum temperature yesterday: 64 °F (at 6:20 PM)
Minimum temperature yesterday: 48 °F (at 6:50 AM)
Average temperature yesterday: 58 °F

Past Weeks' High & Low Weather Summary

 TemperatureHumidityPressure
High73 °F (Aug 28, 3:20 PM)100% (Aug 27, 6:20 AM)30.24 "Hg (Aug 27, 6:20 AM)
Low45 °F (Aug 27, 5:20 AM)43% (Aug 20, 2:50 PM)29.65 "Hg (Aug 26, 5:20 AM)
Average58 °F75%29.98 "Hg
* Reported Aug 18 10:20 PM — Sep 2 10:50 PM, Unna, Weather by CustomWeather, © 2014

Note: Actual official high and low records may vary slightly from our data, if they occured in-between our weather recording intervals... More about our weather records

Advertising

Unna weather history for previous 24 hours

 ConditionsComfort  
Time TempWeatherWind HumidityBarometerVisibility
10:50 PM
Sep 2
59 °FPassing clouds.5 mph88%30.24 "Hg5 mi
10:20 PM61 °FPartly cloudy.6 mph83%30.24 "Hg6 mi
9:50 PM61 °FPassing clouds.5 mph88%30.24 "HgN/A
9:20 PM61 °FPassing clouds.3 mph88%30.24 "HgN/A
8:50 PM61 °FPartly sunny.2 mph83%30.24 "HgN/A
8:20 PM61 °FBroken clouds.3 mph83%30.21 "Hg6 mi
7:50 PM63 °FPartly sunny.3 mph77%30.21 "Hg6 mi
7:20 PM63 °FScattered clouds.5 mph77%30.21 "Hg6 mi
6:50 PM64 °FPartly sunny.6 mph73%30.21 "Hg6 mi
6:20 PM64 °FScattered clouds.5 mph78%30.21 "Hg6 mi
5:50 PM63 °FScattered clouds.5 mph83%30.18 "Hg4 mi
5:20 PM61 °FPartly sunny.6 mph83%30.21 "HgN/A
4:50 PM63 °FPartly sunny.5 mph83%30.21 "Hg4 mi
4:20 PM61 °FPartly sunny.3 mph88%30.21 "Hg4 mi
3:50 PM61 °FPartly sunny.3 mph83%30.21 "Hg6 mi
3:20 PM61 °FPartly sunny.3 mph83%30.21 "Hg4 mi
2:50 PM61 °FPartly sunny.5 mph83%30.21 "HgN/A
2:20 PM61 °FPartly sunny.5 mph83%30.21 "HgN/A
1:50 PM61 °FPartly sunny.6 mph83%30.21 "Hg6 mi
1:20 PM61 °FPartly sunny.6 mph77%30.21 "HgN/A
12:50 PM61 °FPartly sunny.5 mph77%30.21 "HgN/A
12:20 PM61 °FPartly sunny.5 mph77%30.21 "HgN/A
11:50 AM61 °FBroken clouds.5 mph72%30.18 "HgN/A
11:20 AM61 °FBroken clouds.3 mph77%30.18 "HgN/A
10:50 AM59 °FBroken clouds.3 mph82%30.18 "HgN/A
10:20 AM59 °FPartly sunny.3 mph82%30.18 "HgN/A
9:50 AM57 °FScattered clouds.3 mph88%30.18 "HgN/A
9:20 AM55 °FScattered clouds.2 mph88%30.18 "Hg6 mi
8:50 AM55 °FScattered clouds.5 mph88%30.18 "Hg6 mi
8:20 AM52 °FPassing clouds.5 mph94%30.18 "HgN/A
7:50 AM50 °FSunny.6 mph94%30.18 "Hg10 mi
7:20 AM48 °FClear.5 mph94%30.18 "Hg6 mi
6:50 AM48 °FClear.3 mph94%30.15 "Hg5 mi
6:20 AM50 °FClear.3 mph94%30.15 "Hg10 mi
5:50 AM50 °FClear.5 mph88%30.15 "Hg10 mi
5:20 AM50 °FClear.5 mph94%30.15 "Hg10 mi
Weather by CustomWeather, © 2014

See weather overviewHow to use our weather pages